Location: Sternwarte ZA, Rosenfeld-Brittheim
(48.2889°N, 8.6789°E)
Time: 22:24:47
(UTC+01:00)

ISS - Pass Details

Date: 10 November 2019
Orbit: 412 x 421 km, 51.6° (Epoch: 15 November)

Event Time Altitude Azimuth Distance (km) Brightness Sun altitude
Exits shadow 06:33:35 10° 264° (W) 1,479 -1.6 -8.7°
Maximum altitude 06:35:48 17° 222° (SW) 1,130 -1.8 -8.4°
Drops below altitude 10° 06:38:06 10° 179° (S) 1,495 -0.7 -8.0°
Sets 06:40:39 0° 159° (SSE) 2,353 0.7 -7.6°
